Printer-friendly version

IAU Minor Planet Center

Minor Planet Center

MPEC 2006-S87 : 2006 SV134

The following Minor Planet Electronic Circular may be linked-to from your own Web pages, but must not otherwise be redistributed electronically.


Read MPEC 2006-S86 Read MPEC 2006-S88


M.P.E.C. 2006-S87                                Issued 2006 Sept. 29, 12:47 UT

     The Minor Planet Electronic Circulars contain information on unusual
         minor planets and routine data on comets.  They are published
   on behalf of Commission 20 of the International Astronomical Union by the
          Minor Planet Center, Smithsonian Astrophysical Observatory,
                          Cambridge, MA 02138, U.S.A.

                  Supported in part by the Brinson Foundation
                  Supported in part by the TABASGO Foundation
             Prepared using the Tamkin Foundation Computer Network

                              MPC@CFA.HARVARD.EDU
          URL http://cfa-www.harvard.edu/iau/mpc.html  ISSN 1523-6714

                                  2006 SV134

Observations:
     K06SD4V* C2006 09 28.39753 02 59 58.48 +29 10 31.4          19.9 V ES087703
     K06SD4V  C2006 09 28.40400 02 59 58.02 +29 10 22.6          21.1 V ES087703
     K06SD4V  C2006 09 28.41044 02 59 57.51 +29 10 13.1          20.4 V ES087703
     K06SD4V  C2006 09 28.41698 02 59 57.01 +29 10 01.7          19.9 V ES087703
     K06SD4V  C2006 09 28.44994 02 59 54.45 +29 09 16.0          19.8 V ES087703
     K06SD4V  C2006 09 28.45733 02 59 53.95 +29 09 04.5          19.7 V ES087703
     K06SD4V  C2006 09 28.46472 02 59 53.34 +29 08 53.8          19.5 V ES087703
     K06SD4V  C2006 09 28.47211 02 59 52.76 +29 08 43.5          19.8 V ES087703
     K06SD4V  C2006 09 29.29740 02 58 52.87 +28 48 43.5          20.5 R ES087734
     K06SD4V  C2006 09 29.30033 02 58 52.80 +28 48 39.4          20.1 R ES087734
     K06SD4V  C2006 09 29.30330 02 58 52.32 +28 48 35.2          19.2 R ES087734
     K06SD4V  C2006 09 29.30773 02 58 52.06 +28 48 28.6          19.6 R ES087734
     K06SD4V 5C2006 09 29.36169 02 58 48.12 +28 47 10.7          19.6 R ES087673
     K06SD4V 5C2006 09 29.36632 02 58 47.78 +28 47 03.9                 ES087673
     K06SD4V 5C2006 09 29.37593 02 58 47.03 +28 46 50.4                 ES087673
     K06SD4V 5C2006 09 29.38009 02 58 46.67 +28 46 43.7                 ES087673

Observer details:
673 Table Mountain Observatory, Wrightwood.  Observer J. Young.  0.61-m f/16
    Cassegrain + CCD.
703 Catalina Sky Survey.  Observer R. E. Hill.  Measurers E. C. Beshore,
    E. J. Christensen, G. J. Garradd, A. R. Gibbs, A. D. Grauer, R. E. Hill,
    R. A. Kowalski, S. M. Larson, R. H. McNaught.  0.68-m Schmidt + CCD.
734 Farpoint Observatory.  Observer G. Hug.  Measurer D. Tibbets.  0.7-m
    reflector + CCD.

Orbital elements:
2006 SV134                                               Earth MOID = 0.2381 AU
Epoch 2006 Sept. 22.0 TT = JDT 2454000.5                MPC
M  11.24502              (2000.0)            P               Q
n   0.12645669     Peri.   78.05595     +0.42136580     +0.87747846
a   3.9310465      Node   219.53132     -0.90684242     +0.40507001
e   0.7487836      Incl.   21.09541     -0.00936402     +0.25680699
P   7.79           H   18.3           G   0.15
From 16 observations 2006 Sept. 28-29.

Ephemeris:
2006 SV134               a,e,i = 3.93, 0.75, 21                  q = 0.9875
Date    TT    R. A. (2000) Decl.     Delta      r     Elong.  Phase     V
2006 09 22    03 06.90   +31 38.7    0.783    1.585   124.5    31.5    20.1
2006 10 02    02 55.43   +27 42.2    0.800    1.683   138.0    23.5    20.1
2006 10 12    02 41.42   +23 25.3    0.835    1.781   152.3    15.1    20.0
2006 10 22    02 27.07   +19 08.0    0.895    1.879   167.0     6.8    19.9
2006 11 01    02 14.40   +15 13.8    0.983    1.976   177.5     1.2    19.9
2006 11 11    02 04.68   +12 00.2    1.100    2.072   164.8     7.2    20.6
2006 11 21    01 58.35   +09 33.3    1.242    2.167   152.3    12.2    21.2
2006 12 01    01 55.37   +07 51.5    1.408    2.260   140.9    16.0    21.7

Timothy B. Spahr             (C) Copyright 2006 MPC           M.P.E.C. 2006-S87

Read MPEC 2006-S86 Read MPEC 2006-S88


Our Web policy. Index to the CBAT/MPC/ICQ pages.


Valid HTML 4.01!